This demonstration page uses our WeatherBlox Daily Observations layout. Learn more.

Left ArrowRight Arrow

Hourly Observations for December 1, 2015

Temp ( °F °C ) Dew Point ( °F °C ) Humidity (%) Winds ( mph kmh ) Pressure ( in mb ) Visibility ( mi km ) Precip ( " mm )
12:53 am 00:53 Cloudy with Light Rain 47 8.3 46 7.8 97 97 E 3 6 29.98 1015 3 5 0.01 0.25
1:00 am 01:00 Cloudy with Light Rain 47 8.3 46 7.8 97 97 ESE 6 9 29.97 1015 2 3 N/A
1:25 am 01:25 Mostly Cloudy with Light Rain 47 8.3 46 7.8 97 97 ESE 7 11 29.94 1014 4 6 0.02 0.51
1:35 am 01:35 Cloudy with Light Rain 47 8.3 46 7.8 97 97 N N/A 29.97 1015 6 10 0.02 0.51
1:43 am 01:43 Cloudy with Light Rain 47 8.3 46 7.8 97 97 NW 8 13 29.97 1015 6 10 0.02 0.51
1:53 am 01:53 Cloudy with Light Rain 47 8.3 46 7.8 97 97 N N/A 29.95 1014 7 11 0.02 0.51
2:15 am 02:15 Cloudy with Mist and Fog 47 8.3 46 7.8 97 97 N N/A 29.97 1015 3 5 N/A
2:22 am 02:22 Cloudy with Mist and Fog 47 8.3 46 7.8 97 97 E 5 7 29.94 1014 2 3 N/A
2:33 am 02:33 Cloudy with Mist and Fog 47 8.3 47 8.3 100 100 E 3 6 29.94 1014 4 6 0.01 0.25
2:53 am 02:53 Cloudy with Mist and Fog 47 8.3 47 8.3 100 100 ESE 5 7 29.91 1013 2 2 0.01 0.25
3:02 am 03:02 Cloudy with Mist and Fog 47 8.3 47 8.3 100 100 ESE 3 6 29.94 1014 2 3 N/A
3:18 am 03:18 Cloudy with Mist and Fog 47 8.3 47 8.3 100 100 N N/A 29.94 1014 1 2 N/A
3:34 am 03:34 Cloudy with Mist and Fog 48 8.9 47 8.3 96 96 N N/A 29.94 1014 2 3 N/A
3:48 am 03:48 Cloudy with Mist and Fog 48 9 46 8 94 94 ENE 3 6 29.94 1014 4 6 N/A
3:53 am 03:53 Cloudy with Mist and Fog 48 8.9 47 8.3 96 96 E 5 7 29.89 1012 4 6 N/A
4:37 am 04:37 Cloudy with Light Rain 49 9.4 48 8.9 97 97 N N/A 29.94 1014 5 8 0.02 0.51
4:53 am 04:53 Cloudy with Rain 49 9.4 48 8.9 97 97 E 7 11 29.87 1012 5 8 0.03 0.76
5:06 am 05:06 Cloudy with Rain 49 9.4 48 8.9 97 97 N N/A 29.91 1013 4 6 0.03 0.76
5:46 am 05:46 Cloudy with Light Rain 49 9.4 49 9.4 100 100 N N/A 29.91 1013 6 10 0.03 0.76
5:53 am 05:53 Cloudy with Light Rain 49 9.4 49 9.4 100 100 ESE 3 6 29.86 1011 6 10 0.03 0.76
6:53 am 06:53 Cloudy with Mist and Fog 51 10.6 50 10 96 96 N N/A 29.87 1012 5 8 N/A
7:08 am 07:08 Cloudy with Mist and Fog 51 10.6 50 10 96 96 N N/A 29.91 1013 3 5 N/A
7:18 am 07:18 Cloudy with Light Rain 51 10.6 50 10 96 96 N N/A 29.91 1013 2 3 0.01 0.25
7:38 am 07:38 Cloudy with Mist and Fog 51 10.6 51 10.6 100 100 N N/A 29.91 1013 2 3 0.01 0.25
7:53 am 07:53 Cloudy with Mist and Fog 51 10.6 51 10.6 100 100 N N/A 29.88 1012 2 3 0.01 0.25
8:02 am 08:02 Cloudy with Light Rain 51 10.6 51 10.6 100 100 N N/A 29.91 1013 2 3 N/A
8:09 am 08:09 Cloudy with Light Rain 51 10.6 51 10.6 100 100 N N/A 29.91 1013 1 2 N/A
8:16 am 08:16 Cloudy with Light Rain 52 11.1 51 10.6 97 97 N N/A 29.91 1013 1 2 N/A
8:46 am 08:46 Cloudy with Mist and Fog 52 11.1 51 10.6 97 97 WNW 3 6 29.91 1013 2 3 0.01 0.25
8:53 am 08:53 Cloudy with Mist and Fog 52 11.1 51 10.6 97 97 WNW 5 7 29.89 1012 2 3 0.01 0.25
9:08 am 09:08 Cloudy with Mist and Fog 53 11.7 52 11.1 96 96 N N/A 29.91 1013 3 5 N/A
9:10 am 09:10 Cloudy with Mist and Fog 53 11.7 52 11.1 96 96 N N/A 29.91 1013 3 4 N/A
9:19 am 09:19 Cloudy with Mist and Fog 53 11.7 52 11.1 96 96 N N/A 29.91 1013 3 5 N/A
9:38 am 09:38 Cloudy with Mist and Fog 53 11.7 52 11.1 96 96 WSW 3 6 29.91 1013 4 6 N/A
9:53 am 09:53 Cloudy with Light Rain 53 11.7 53 11.7 100 100 WSW 3 6 29.89 1012 3 5 N/A
10:53 am 10:53 Cloudy 53 11.7 51 10.6 93 93 W 7 11 29.90 1013 10 16 N/A
11:53 am 11:53 Cloudy 53 11.7 50 10 89 89 W 7 11 29.90 1013 10 16 N/A
12:43 pm 12:43 Cloudy 52 11.1 50 10 93 93 WNW 9 15 29.94 1014 9 14 N/A
12:53 pm 12:53 Cloudy with Mist and Fog 52 11.1 50 10 93 93 WNW 8 13 29.89 1012 4 6 N/A
1:32 pm 13:32 Cloudy 51 10.6 49 9.4 92 92 W 5 7 29.91 1013 10 16 N/A
1:53 pm 13:53 Cloudy 52 11.1 49 9.4 89 89 VRB 3 6 29.88 1012 10 16 N/A
2:20 pm 14:20 Cloudy 53 11.7 49 9.4 86 86 WSW 6 9 29.91 1013 10 16 N/A
2:53 pm 14:53 Cloudy 54 12.2 49 9.4 83 83 W 3 6 29.88 1012 10 16 N/A
3:06 pm 15:06 Cloudy 53 11.7 48 8.9 83 83 W 8 13 29.91 1013 10 16 N/A
3:13 pm 15:13 Mostly Cloudy 54 12.2 47 8.3 77 77 W 8 13 29.91 1013 10 16 N/A
3:53 pm 15:53 Partly Cloudy 53 11.7 47 8.3 80 80 VRB 7 11 29.89 1012 10 16 N/A
4:53 pm 16:53 Partly Cloudy 51 10.6 43 6.1 74 74 W 6 9 29.92 1013 10 16 N/A
5:53 pm 17:53 Clear 48 8.9 42 5.6 80 80 W 6 9 29.94 1014 10 16 N/A
6:53 pm 18:53 Clear 44 6.7 41 5 89 89 W 3 6 29.95 1014 10 16 N/A
7:53 pm 19:53 Clear 42 5.6 40 4.4 92 92 N N/A 29.95 1014 10 16 N/A
8:53 pm 20:53 Clear 39 3.9 38 3.3 96 96 N N/A 29.96 1015 10 16 N/A
9:53 pm 21:53 Clear 39 3.9 38 3.3 96 96 N N/A 29.97 1015 10 16 N/A
10:53 pm 22:53 Clear 38 3.3 37 2.8 97 97 N N/A 29.96 1015 10 16 N/A
11:53 pm 23:53 Clear 38 3.3 37 2.8 97 97 N N/A 29.94 1014 10 16 N/A

Powered by AerisWeather